Home   Weather   Chennai   Past weeks

Flag for India Past Weather in Chennai, Tamil Nadu, India — Yesterday and Last 2 Weeks

Now
82 °F

Haze.


Feels Like: 87 °F
Forecast: 73 / 85 °F
Wind: 6 mph from Northeast

Location: Madras / Minambakkam

Current Time: Jan 24, 2017 at 11:01:15 am

Latest Report: Jan 24, 2017 at 10:00 am


Visibility: 3 mi

Pressure: 30.01 "Hg

Humidity: 70%

Dew Point: 72 °F

Location of ChennaiLocation

Past Weather in Chennai — Graph

°F

Chennai Temperature Yesterday

Maximum temperature yesterday: 88 °F (at 1:00 pm)
Minimum temperature yesterday: 72 °F (at 2:30 am)
Average temperature yesterday: 78 °F

High & Low Weather Summary for the Past Weeks

 TemperatureHumidityPressure
High88 °F (Jan 10, 1:00 pm)94% (Jan 11, 5:30 am)30.04 "Hg (Jan 11, 5:30 am)
Low66 °F (Jan 17, 5:30 am)35% (Jan 23, 1:00 pm)29.74 "Hg (Jan 12, 4:00 pm)
Average77 °F71%29.90 "Hg
* Reported Jan 9 9:30 am — Jan 24 10:00 am, Chennai, Weather by CustomWeather, © 2017

Note: Actual official high and low records may vary slightly from our data, if they occured in-between our weather recording intervals... More about our weather records

Advertising

Chennai Weather History for the Previous 24 Hours

Scroll right to see more
 ConditionsComfort  
Time TempWeatherWind HumidityBarometerVisibility
10:00 am
Tue, Jan 24
82 °FHaze.6 mph70%30.01 "Hg3 mi
9:30 am81 °FHaze.3 mph74%30.01 "Hg2 mi
9:00 am77 °FFog.3 mph83%29.98 "Hg2 mi
8:30 am77 °FFog.3 mph83%29.98 "Hg2 mi
8:00 am73 °FFog.No wind89%29.98 "Hg1 mi
7:30 am73 °FFog.No wind89%29.95 "Hg1 mi
7:00 am73 °FFog.No wind89%29.92 "Hg1 mi
6:30 am72 °FFog.No wind94%29.92 "Hg2 mi
6:00 am72 °FFog.No wind94%29.89 "Hg2 mi
5:30 am73 °FFog.No wind89%29.89 "Hg3 mi
5:00 am72 °FFog.No wind88%29.89 "Hg3 mi
4:30 am72 °FFog.No wind88%29.89 "Hg3 mi
4:00 am72 °FFog.No wind88%29.89 "Hg3 mi
3:30 am73 °FFog.No wind83%29.92 "Hg3 mi
3:00 am73 °FFog.No wind89%29.92 "Hg3 mi
2:30 am73 °FFog.No wind89%29.92 "Hg3 mi
2:00 am73 °FHaze.No wind89%29.92 "Hg3 mi
1:30 am73 °FHaze.No wind83%29.95 "Hg3 mi
1:00 am73 °FHaze.No wind83%29.95 "Hg3 mi
12:30 am73 °FHaze.No wind83%29.98 "Hg3 mi
12:00 am75 °FHaze.No wind78%29.98 "Hg3 mi
11:30 pm
Mon, Jan 23
75 °FHaze.No wind78%29.98 "Hg3 mi
11:00 pm77 °FHaze.No wind74%29.98 "Hg3 mi
10:30 pm77 °FHaze.3 mph74%30.01 "Hg3 mi
10:00 pm77 °FHaze.3 mph79%30.01 "Hg3 mi
9:30 pm77 °FHaze.3 mph79%30.01 "Hg3 mi
9:00 pm79 °FHaze.5 mph74%29.98 "Hg3 mi
8:30 pm79 °FHaze.5 mph74%29.98 "Hg3 mi
8:00 pm79 °FHaze.5 mph74%29.98 "Hg3 mi
7:30 pm79 °FHaze.5 mph70%29.95 "Hg3 mi
7:00 pm79 °FHaze.7 mph70%29.95 "Hg3 mi
6:30 pm79 °FHaze.7 mph74%29.92 "Hg3 mi
6:00 pm81 °FPassing clouds.9 mph66%29.92 "Hg4 mi
5:30 pm82 °FPassing clouds.9 mph62%29.92 "Hg4 mi
5:00 pm82 °FPassing clouds.9 mph58%29.89 "Hg4 mi
4:30 pm84 °FPassing clouds.9 mph51%29.89 "Hg4 mi
4:00 pm86 °FPassing clouds.10 mph46%29.89 "Hg4 mi
3:30 pm86 °FPassing clouds.8 mph46%29.89 "Hg4 mi
3:00 pm86 °FPassing clouds.9 mph49%29.89 "Hg4 mi
2:30 pm86 °FPassing clouds.10 mph46%29.89 "Hg4 mi
2:00 pm88 °FPassing clouds.12 mph40%29.89 "Hg4 mi
1:30 pm88 °FPassing clouds.8 mph35%29.92 "Hg4 mi
1:00 pm88 °FPassing clouds.9 mph35%29.95 "Hg4 mi
12:30 pm86 °FPassing clouds.9 mph52%29.95 "Hg4 mi
12:00 pm84 °FScattered clouds.9 mph58%29.98 "Hg3 mi
11:30 am84 °FScattered clouds.9 mph62%29.98 "Hg2 mi
11:00 am82 °FScattered clouds.7 mph70%30.01 "Hg2 mi
Weather by CustomWeather, © 2017

See weather overviewHow to use our weather pages